Location: Memmingen
(47.9830°N, 10.1733°E)
Time: 02:17:39
(UTC+01:00)

Envisat - Visible Passes

Search period start: 18 February 2018 00:00
Search period end: 28 February 2018 00:00
Orbit: 764 x 766 km, 98.2° (Epoch: 17 February)

Date Brightness Start Highest point End Pass type
(mag) Time Alt. Az. Time Alt. Az. Time Alt. Az.
18 Feb 4.1 18:28:36 10° ESE 18:32:35 24° ENE 18:36:36 10° N visible
18 Feb 3.6 20:06:19 10° S 20:11:17 55° W 20:16:17 10° NNW visible
19 Feb 2.9 19:29:27 10° SSE 19:34:31 74° ENE 19:39:37 10° N visible
19 Feb 5.6 21:10:59 10° SW 21:14:06 16° W 21:17:15 10° NW visible
20 Feb 3.5 18:53:19 10° SE 18:57:57 37° ENE 19:02:36 10° N visible
20 Feb 4.6 20:32:27 10° SSW 20:37:00 33° W 20:41:35 10° NNW visible
21 Feb 4.3 18:17:58 10° ESE 18:21:35 20° ENE 18:25:12 10° NNE visible
21 Feb 3.3 19:55:04 10° S 20:00:06 68° WSW 20:05:12 10° NNW visible
22 Feb 3.0 19:18:25 10° SSE 19:23:24 60° ENE 19:28:26 10° N visible
22 Feb 5.4 20:59:08 10° SW 21:02:50 20° W 21:06:34 10° NW visible
23 Feb 3.8 18:42:29 10° SE 18:46:54 31° ENE 18:51:19 10° N visible
23 Feb 4.2 20:21:02 10° SSW 20:25:48 40° W 20:30:36 10° NNW visible
24 Feb 3.0 19:43:52 10° SSE 19:48:57 83° WSW 19:54:05 10° NNW visible
24 Feb 5.9 21:26:57 10° WSW 21:28:46 12° W 21:30:37 10° WNW visible
25 Feb 3.2 19:07:26 10° SE 19:12:18 49° ENE 19:17:12 10° N visible
25 Feb 5.1 20:47:28 10° SSW 20:51:35 25° W 20:55:44 10° NW visible
26 Feb 4.0 18:31:44 10° ESE 18:35:51 26° ENE 18:40:00 10° N visible
26 Feb 3.8 20:09:41 10° S 20:14:36 50° W 20:19:34 10° NNW visible
27 Feb 2.9 19:32:45 10° SSE 19:37:49 80° ENE 19:42:56 10° NNW visible
27 Feb 5.8 21:14:38 10° WSW 21:17:29 15° W 21:20:20 10° NW visible
